sat.trackr.live / text

‹ back to catalog

STARLINK-32238

NORAD 61661 · 2024-193A

PAYLOAD ACTIVE UNKNOWN

§ Identity

Operator
Country
US
Launch date
2024-10-26
Launch site
AFETR
Launch vehicle
Mass (kg)
RCS (m²)

Purposes: comms

External: N2YO · Heavens-Above · Gunter

§ Orbital elements

Epoch: 2026-09-21T16:31:16.025088Z

Period
93.85 min
Inclination
53.1595°
Eccentricity
0.0001185
Mean motion
15.34390507 rev/d
Perigee alt
461.9 km
Apogee alt
463.5 km
Semi-major
6,840.9 km
B*
6.4695e-5
RAAN
259.9951°
Arg perigee
85.2721°
Mean anomaly
274.8417°
Rev number
10,654

§ Raw data

STARLINK-322381 61661U 24193A   26264.68837992  .00001810  00000+0  64695-4 0  99942 61661  53.1595 259.9951 0001185  85.2721 274.8417 15.34390507106546

JSON: /api/v1/satellites/61661 · /tle

For live sub-satellite position, see the globe view (requires WebGL).

§ Visibility from observer

Set your observer location to see the next 7 days of passes ≥ 10°. The values pass through the URL so the page stays shareable.

No JS? Fill the form by hand. The geolocation button needs JavaScript.